TimeAKST,TemperatureF,Dew PointF,Humidity,Sea Level PressureIn,VisibilityMPH,Wind Direction,Wind SpeedMPH,Gust SpeedMPH,PrecipitationIn,Events,Conditions,WindDirDegrees,DateUTC
12:16 AM,24.8,19.4,80,30.14,-9999.0,Calm,Calm,-,N/A,,Overcast,0,2012-11-09 09:16:00
12:36 AM,24.8,17.6,74,30.14,-9999.0,Calm,Calm,-,N/A,,Overcast,0,2012-11-09 09:36:00
12:56 AM,26.6,17.6,69,30.14,-9999.0,NNE,4.6,-,N/A,,Mostly Cloudy,20,2012-11-09 09:56:00
1:16 AM,24.8,19.4,80,30.13,2.0,Calm,Calm,-,N/A,,Scattered Clouds,0,2012-11-09 10:16:00
1:36 AM,24.8,21.2,86,30.12,2.5,NNE,5.8,-,N/A,,Clear,30,2012-11-09 10:36:00
1:56 AM,24.8,21.2,86,30.12,3.0,NE,4.6,-,N/A,,Scattered Clouds,50,2012-11-09 10:56:00
2:16 AM,24.8,21.2,86,30.11,3.0,NE,5.8,-,N/A,,Scattered Clouds,50,2012-11-09 11:16:00
2:36 AM,24.8,21.2,86,30.10,1.8,ENE,5.8,-,N/A,,Clear,60,2012-11-09 11:36:00
2:56 AM,24.8,23.0,93,30.09,2.0,ENE,6.9,-,N/A,,Clear,60,2012-11-09 11:56:00
3:16 AM,24.8,23.0,93,30.08,2.5,NE,5.8,-,N/A,,Clear,50,2012-11-09 12:16:00
3:36 AM,24.8,23.0,93,30.08,1.5,NE,5.8,-,N/A,,Clear,40,2012-11-09 12:36:00
3:56 AM,24.8,23.0,93,30.06,2.5,NNE,4.6,-,N/A,,Partly Cloudy,30,2012-11-09 12:56:00
4:16 AM,24.8,23.0,93,30.06,3.0,NE,4.6,-,N/A,,Partly Cloudy,40,2012-11-09 13:16:00
4:36 AM,24.8,23.0,93,30.05,3.0,NNE,4.6,-,N/A,,Scattered Clouds,30,2012-11-09 13:36:00
4:56 AM,26.6,23.0,86,30.04,5.0,NNE,4.6,-,N/A,,Mostly Cloudy,30,2012-11-09 13:56:00
5:16 AM,26.6,23.0,86,30.03,3.0,NE,5.8,-,N/A,,Mostly Cloudy,40,2012-11-09 14:16:00
5:36 AM,26.6,23.0,86,30.02,6.0,NE,4.6,-,N/A,,Overcast,50,2012-11-09 14:36:00
5:56 AM,26.6,24.8,93,30.01,6.0,NE,4.6,-,N/A,,Overcast,50,2012-11-09 14:56:00
6:16 AM,26.6,24.8,93,30.00,7.0,NNE,4.6,-,N/A,,Mostly Cloudy,30,2012-11-09 15:16:00
6:36 AM,26.6,24.8,93,29.99,10.0,NNE,8.1,-,N/A,,Overcast,30,2012-11-09 15:36:00
6:56 AM,26.6,24.8,93,29.98,10.0,NE,4.6,-,N/A,,Mostly Cloudy,40,2012-11-09 15:56:00
7:16 AM,26.6,24.8,93,29.97,10.0,NNE,8.1,-,N/A,,Overcast,30,2012-11-09 16:16:00
7:36 AM,26.6,24.8,93,29.96,10.0,NE,5.8,-,N/A,,Overcast,40,2012-11-09 16:36:00
7:56 AM,26.6,24.8,93,29.96,10.0,NNE,4.6,-,N/A,,Overcast,30,2012-11-09 16:56:00
8:16 AM,26.6,24.8,93,29.96,10.0,NNE,9.2,-,N/A,,Overcast,30,2012-11-09 17:16:00
8:36 AM,26.6,24.8,93,29.95,10.0,NNE,4.6,-,N/A,,Overcast,20,2012-11-09 17:36:00
8:56 AM,26.6,24.8,93,29.95,10.0,NNE,5.8,-,N/A,,Overcast,30,2012-11-09 17:56:00
9:16 AM,26.6,24.8,93,29.94,10.0,NE,5.8,-,N/A,,Overcast,40,2012-11-09 18:16:00
9:36 AM,26.6,24.8,93,29.93,7.0,NNE,3.5,-,N/A,,Overcast,30,2012-11-09 18:36:00
9:56 AM,26.6,24.8,93,29.93,7.0,North,3.5,-,N/A,,Overcast,350,2012-11-09 18:56:00
10:16 AM,28.4,26.6,93,29.93,9.0,NNE,5.8,-,N/A,,Mostly Cloudy,20,2012-11-09 19:16:00
10:36 AM,28.4,26.6,93,29.92,10.0,NE,9.2,-,N/A,,Overcast,50,2012-11-09 19:36:00
10:56 AM,28.4,26.6,93,29.91,10.0,NE,5.8,-,N/A,,Overcast,40,2012-11-09 19:56:00
11:16 AM,28.4,26.6,93,29.91,10.0,NNE,5.8,-,N/A,,Overcast,30,2012-11-09 20:16:00
11:36 AM,28.4,26.6,93,29.91,10.0,NNE,8.1,-,N/A,,Overcast,30,2012-11-09 20:36:00
11:56 AM,28.4,26.6,93,29.90,10.0,NNE,5.8,-,N/A,,Overcast,30,2012-11-09 20:56:00
12:16 PM,28.4,26.6,93,29.89,10.0,NNE,4.6,-,N/A,,Overcast,30,2012-11-09 21:16:00
12:36 PM,28.4,26.6,93,29.88,10.0,NNE,5.8,-,N/A,,Overcast,30,2012-11-09 21:36:00
12:56 PM,30.2,26.6,86,29.89,10.0,NNE,6.9,-,N/A,,Overcast,30,2012-11-09 21:56:00
1:16 PM,30.2,26.6,86,29.88,10.0,NNE,6.9,-,N/A,,Overcast,20,2012-11-09 22:16:00
1:36 PM,30.2,26.6,86,29.87,10.0,NNE,4.6,-,N/A,,Overcast,20,2012-11-09 22:36:00
1:56 PM,30.2,26.6,86,29.86,10.0,North,4.6,-,N/A,,Overcast,10,2012-11-09 22:56:00
2:16 PM,30.2,26.6,86,29.84,10.0,NNE,5.8,-,N/A,,Overcast,30,2012-11-09 23:16:00
2:36 PM,30.2,28.4,93,29.83,10.0,NE,8.1,-,N/A,,Overcast,50,2012-11-09 23:36:00
2:56 PM,30.2,28.4,93,29.82,10.0,NNE,4.6,-,N/A,,Overcast,30,2012-11-09 23:56:00
3:16 PM,30.2,26.6,86,29.81,10.0,NNE,5.8,-,N/A,,Overcast,30,2012-11-10 00:16:00
3:36 PM,30.2,28.4,93,29.80,10.0,NNE,5.8,-,N/A,,Overcast,30,2012-11-10 00:36:00
3:56 PM,30.2,28.4,93,29.79,10.0,NE,8.1,-,N/A,,Overcast,40,2012-11-10 00:56:00
4:16 PM,30.2,28.4,93,29.78,10.0,NNE,4.6,-,N/A,,Overcast,20,2012-11-10 01:16:00
4:36 PM,30.2,26.6,86,29.78,10.0,NNE,5.8,-,N/A,,Overcast,20,2012-11-10 01:36:00
4:56 PM,30.2,28.4,93,29.77,10.0,NNE,4.6,-,N/A,,Overcast,30,2012-11-10 01:56:00
5:16 PM,30.2,28.4,93,29.77,10.0,NE,4.6,-,N/A,,Overcast,40,2012-11-10 02:16:00
5:36 PM,30.2,28.4,93,29.77,10.0,NE,4.6,-,N/A,,Overcast,40,2012-11-10 02:36:00
5:56 PM,30.2,26.6,86,29.76,10.0,NNE,5.8,-,N/A,,Overcast,30,2012-11-10 02:56:00
6:16 PM,30.2,26.6,86,29.76,10.0,NNE,4.6,-,N/A,,Overcast,20,2012-11-10 03:16:00
6:36 PM,30.2,26.6,86,29.76,10.0,North,4.6,-,N/A,,Overcast,10,2012-11-10 03:36:00
6:56 PM,30.2,28.4,93,29.75,10.0,NNE,4.6,-,N/A,,Overcast,20,2012-11-10 03:56:00
7:16 PM,30.2,28.4,93,29.75,10.0,NNE,5.8,-,N/A,,Overcast,30,2012-11-10 04:16:00
7:36 PM,30.2,28.4,93,29.74,10.0,NNE,6.9,-,N/A,,Overcast,20,2012-11-10 04:36:00
7:56 PM,30.2,28.4,93,29.73,10.0,North,4.6,-,N/A,,Overcast,10,2012-11-10 04:56:00
8:16 PM,30.2,28.4,93,29.73,10.0,NNE,8.1,-,N/A,,Overcast,30,2012-11-10 05:16:00
8:36 PM,30.2,28.4,93,29.72,10.0,NE,4.6,-,N/A,,Overcast,40,2012-11-10 05:36:00
8:56 PM,30.2,28.4,93,29.72,10.0,NE,8.1,-,N/A,,Overcast,40,2012-11-10 05:56:00
9:16 PM,30.2,28.4,93,29.71,10.0,NNE,4.6,-,N/A,,Overcast,30,2012-11-10 06:16:00
9:36 PM,30.2,28.4,93,29.71,10.0,NE,6.9,-,N/A,,Overcast,50,2012-11-10 06:36:00
9:56 PM,30.2,28.4,93,29.71,10.0,ENE,4.6,-,N/A,,Overcast,60,2012-11-10 06:56:00
10:16 PM,30.2,28.4,93,29.70,10.0,NE,5.8,-,N/A,,Overcast,40,2012-11-10 07:16:00
10:36 PM,32.0,28.4,87,29.70,10.0,NNE,4.6,-,N/A,,Overcast,30,2012-11-10 07:36:00
10:56 PM,32.0,28.4,87,29.70,10.0,NE,4.6,-,N/A,,Overcast,40,2012-11-10 07:56:00
11:16 PM,32.0,28.4,87,29.70,10.0,NE,6.9,-,N/A,,Overcast,40,2012-11-10 08:16:00
11:36 PM,32.0,28.4,87,29.69,10.0,NE,6.9,-,N/A,,Overcast,50,2012-11-10 08:36:00
11:56 PM,32.0,28.4,87,29.69,10.0,NE,6.9,-,N/A,,Overcast,50,2012-11-10 08:56:00